FW9606 Weather Reports


Display with metric or nautical units.
time (UTC)temp
F
wind
direction
speed
MPH
gust
MPH
rain 1hr
in
rain 24hr
in
rain mn
in
humidity
%
barometer
mb
20260508153047 59 188 5.0 11.0 0.00 0.03 0.00 61 1016.5
20260508151554 60 188 5.0 14.0 0.00 0.03 0.00 61 1016.5
20260508150044 59 184 6.0 15.0 0.00 0.03 0.00 62 1016.4
20260508144549 59 186 7.0 14.0 0.00 0.08 0.00 59 1016.4
20260508143051 60 232 7.0 13.0 0.00 0.08 0.00 55 1016.5
20260508141548 60 196 7.0 12.0 0.00 0.08 0.00 59 1016.4
20260508140051 60 204 4.0 14.0 0.00 0.08 0.00 62 1016.3
20260508134556 61 212 5.0 16.0 0.00 0.08 0.00 62 1016.1
20260508133104 61 202 6.0 13.0 0.00 0.08 0.00 65 1016.2
20260508131550 59 207 7.0 15.0 0.00 0.08 0.00 63 1016.0
20260508130050 57 216 4.0 13.0 0.00 0.08 0.00 68 1016.0
20260508124550 57 178 6.0 14.0 0.00 0.08 0.00 65 1016.0
20260508123052 58 360 6.0 16.0 0.00 0.08 0.00 63 1015.9
20260508121559 59 184 6.0 17.0 0.00 0.08 0.00 63 1015.7
20260508120049 58 215 6.0 13.0 0.00 0.08 0.00 64 1015.7
20260508114550 56 180 5.0 16.0 0.00 0.08 0.00 64 1015.7
20260508113104 55 190 8.0 17.0 0.00 0.08 0.00 65 1015.6
20260508111559 54 360 8.0 15.0 0.00 0.08 0.00 68 1015.6
20260508110051 54 213 5.0 13.0 0.00 0.08 0.00 71 1015.6
20260508104553 54 360 5.0 17.0 0.00 0.08 0.00 73 1015.4
20260508103049 52 360 8.0 17.0 0.00 0.08 0.00 72 1015.5
20260508101552 53 360 6.0 14.0 0.00 0.08 0.00 75 1015.4
20260508100050 53 200 4.0 16.0 0.00 0.08 0.00 74 1015.3
20260508094559 53 227 5.0 13.0 0.00 0.08 0.00 75 1015.3
20260508093050 53 360 5.0 13.0 0.00 0.08 0.00 77 1015.2
20260508091612 52 202 4.0 14.0 0.00 0.08 0.00 78 1015.2
20260508090106 51 360 4.0 11.0 0.00 0.08 0.00 79 1015.1
20260508084556 51 360 6.0 14.0 0.00 0.08 0.00 79 1015.1
20260508083049 50 360 6.0 15.0 0.00 0.08 0.00 81 1015.0
20260508081548 49 360 7.0 17.0 0.00 0.08 0.00 81 1014.7
20260508080059 49 240 7.0 16.0 0.00 0.08 0.00 83 1014.5
20260508074545 49 196 5.0 15.0 0.00 0.08 0.00 86 1014.2
20260508073052 49 360 5.0 11.0 0.00 0.08 0.00 87 1014.2
20260508071553 49 215 5.0 13.0 0.00 0.08 0.00 87 1014.0
20260508070059 48 360 4.0 12.0 0.00 0.08 0.00 87 1013.8
20260508064551 48 360 5.0 11.0 0.00 0.08 0.00 88 1013.5
20260508063125 48 211 5.0 13.0 0.00 0.08 0.00 90 1013.3
20260508061552 47 360 5.0 11.0 0.00 0.08 0.00 90 1013.3
20260508060053 47 133 6.0 13.0 0.00 0.08 0.00 91 1013.2
20260508054550 46 0 1.0 11.0 0.00 0.08 0.00 91 1012.9
20260508053055 46 0 1.0 5.0 0.00 0.08 0.00 91 1012.8
20260508051612 46 161 2.0 7.0 0.00 0.08 0.00 91 1012.5
20260508050046 46 147 1.0 5.0 0.00 0.08 0.00 91 1012.5
20260508044550 46 178 0.0 5.0 0.00 0.08 0.00 90 1012.6
20260508043051 46 198 0.0 3.0 0.00 0.08 0.00 90 1012.5
20260508041554 46 0 1.0 4.0 0.00 0.08 0.00 89 1012.4
20260508040051 47 0 1.0 4.0 0.00 0.08 0.00 89 1012.3
20260508034551 47 115 0.0 2.0 0.00 0.08 0.00 88 1012.3
20260508033052 47 0 0.0 3.0 0.00 0.08 0.00 88 1012.2
20260508031551 47 355 0.0 3.0 0.00 0.08 0.00 87 1012.2
20260508030056 47 0 1.0 10.0 0.00 0.08 0.00 87 1012.3
20260508024550 47 0 0.0 11.0 0.00 0.08 0.00 86 1012.1
20260508023051 47 67 1.0 11.0 0.00 0.08 0.00 87 1011.9
20260508021554 47 107 0.0 8.0 0.00 0.08 0.00 87 1011.8
20260508020104 47 92 2.0 12.0 0.00 0.08 0.00 87 1012.0
20260508014553 47 143 2.0 9.0 0.00 0.08 0.00 87 1011.9
20260508013050 47 122 1.0 10.0 0.00 0.08 0.00 87 1012.1
20260508011554 47 160 2.0 13.0 0.00 0.08 0.00 88 1011.9
20260508010100 46 98 1.0 11.0 0.00 0.08 0.00 88 1011.9
20260508004551 46 115 1.0 6.0 0.00 0.08 0.00 89 1011.9
20260508003100 46 0 1.0 8.0 0.00 0.08 0.00 89 1011.9
20260508001548 46 0 0.0 5.0 0.00 0.08 0.00 89 1012.0
20260508000049 47 0 0.0 4.0 0.00 0.08 0.00 88 1012.2
20260507234550 47 134 1.0 9.0 0.00 0.08 0.00 88 1012.0
20260507233045 47 134 1.0 9.0 0.00 0.08 0.00 87 1012.1
20260507231552 48 188 4.0 12.0 0.00 0.08 0.00 87 1012.1
20260507230107 48 135 4.0 19.0 0.00 0.08 0.00 87 1012.0
20260507224555 48 360 2.0 7.0 0.00 0.08 0.08 87 1012.0
20260507223133 48 153 3.0 12.0 0.00 0.08 0.08 86 1012.0
20260507221554 48 0 1.0 8.0 0.00 0.08 0.08 86 1012.0
20260507220051 48 167 5.0 13.0 0.00 0.08 0.08 86 1012.0
20260507214557 48 171 4.0 15.0 0.00 0.08 0.08 86 1012.0
20260507213122 48 165 3.0 10.0 0.00 0.08 0.08 86 1011.9
20260507211548 48 134 3.0 10.0 0.00 0.08 0.08 87 1012.0
20260507210101 48 140 2.0 9.0 0.00 0.08 0.08 86 1012.0
20260507204548 49 115 1.0 10.0 0.00 0.08 0.08 85 1012.0
20260507203048 49 184 0.0 8.0 0.00 0.08 0.08 85 1011.9
20260507201604 49 0 0.0 4.0 0.00 0.08 0.08 86 1011.8
20260507200103 49 0 0.0 3.0 0.00 0.08 0.08 88 1011.7
20260507194549 49 0 0.0 4.0 0.00 0.08 0.08 88 1011.6
20260507193053 49 0 0.0 2.0 0.00 0.08 0.08 88 1011.5
20260507191548 50 0 0.0 0.0 0.00 0.08 0.08 88 1011.5
20260507190054 50 0 0.0 3.0 0.00 0.08 0.08 88 1011.5
20260507184549 50 0 0.0 1.0 0.00 0.08 0.08 88 1011.4
20260507183052 50 0 0.0 3.0 0.00 0.08 0.08 87 1011.5
20260507181548 50 133 1.0 2.0 0.00 0.08 0.08 87 1011.4
20260507180054 50 94 1.0 3.0 0.00 0.08 0.08 88 1011.3
20260507174555 50 0 0.0 5.0 0.00 0.08 0.08 86 1011.3
20260507173054 49 226 1.0 8.0 0.00 0.08 0.08 87 1011.2
20260507171600 48 0 1.0 9.0 0.00 0.08 0.08 86 1011.3
20260507170051 48 140 0.0 6.0 0.01 0.08 0.08 86 1011.4
20260507164547 48 0 0.0 11.0 0.01 0.08 0.08 85 1011.4
20260507163044 47 0 4.0 17.0 0.01 0.08 0.08 87 1011.5
20260507161601 47 123 1.0 14.0 0.01 0.08 0.08 90 1011.6
20260507160045 47 155 5.0 16.0 0.02 0.07 0.07 90 1011.7
20260507154549 48 126 2.0 16.0 0.07 0.07 0.07 89 1011.7